User: anonymous   Login
Location: Étouvelles
(49.5207°N, 3.5808°E)
Time: 14:44:08
(UTC+00:00)
Language:

S3M - Orbit

View from above orbital plane
View from above orbital plane
View from above satellite
View from above satellite

Ground track
Ground track

The orbit data is extracted from the following two-line orbital elements,

1 12508U 81053B   23151.87366527  .00000097  00000-0  83429-4 0  9995
2 12508  82.9573 332.0962 0036156 243.1514 116.5945 13.76443146114385
Epoch (UTC): 31 May 2023 20:58:04
Eccentricity: 0.0036156
inclination: 82.9573°
perigee height: 950 km
apogee height: 1003 km
right ascension of ascending node: 332.0962°
argument of perigee: 243.1514°
revolutions per day: 13.76443146
mean anomaly at epoch: 116.5945°
orbit number at epoch: 11438

The dashed part of the orbit path shows where the satellite is in the earth's shadow,  

DLR